KAC1914 OKKK-OBBI

Flight info

Callsign KAC1914
Flight time 0h 43m
Altitude 27000
Route BOXIK B416 IMDOX P975 LONOS L703 KOBOK
Aircraft A359/H-SDE2E3GHIJ3J4J5LM1ORWXY/LB1D1

Departure

Time 2026-05-04 16:51
Airport Kuwait International Airport (OKKK)

Arrival

Time 2026-05-04 17:35
Airport Bahrain International Airport (OBBI)
Time Latitude Longitude Altitude Speed Heading
2026-05-04 16:10 29.23808 47.97316 176 ft 0 kts 245°
2026-05-04 16:41 29.23808 47.97314 176 ft 4 kts 245°
2026-05-04 16:41 29.23838 47.97382 176 ft 4 kts 208°
2026-05-04 16:42 29.23836 47.97392 176 ft 0 kts 155°
2026-05-04 16:45 29.23770 47.97425 176 ft 9 kts 156°
2026-05-04 16:46 29.23612 47.97337 176 ft 10 kts 244°
2026-05-04 16:46 29.23550 47.97175 176 ft 8 kts 244°
2026-05-04 16:47 29.23495 47.97013 176 ft 14 kts 264°
2026-05-04 16:47 29.23522 47.96778 175 ft 10 kts 278°
2026-05-04 16:48 29.23671 47.96608 172 ft 8 kts 333°
2026-05-04 16:48 29.23726 47.96575 172 ft 11 kts 332°
2026-05-04 16:49 29.23908 47.96474 171 ft 19 kts 336°
2026-05-04 16:49 29.24074 47.96386 170 ft 8 kts 328°
2026-05-04 16:50 29.24046 47.96234 165 ft 15 kts 248°
2026-05-04 16:50 29.23842 47.96267 165 ft 54 kts 155°
2026-05-04 16:51 29.22289 47.97086 324 ft 171 kts 154°
2026-05-04 16:51 29.21212 47.97619 1162 ft 168 kts 154°
2026-05-04 16:51 29.19395 47.99657 1798 ft 218 kts 112°
2026-05-04 16:52 29.18067 48.03256 2440 ft 266 kts 115°
2026-05-04 16:52 29.17229 48.05124 3363 ft 262 kts 120°
2026-05-04 16:53 29.15422 48.08852 4934 ft 275 kts 119°
2026-05-04 16:53 29.12524 48.14772 7089 ft 292 kts 120°
2026-05-04 16:54 29.11522 48.16804 7920 ft 295 kts 121°
2026-05-04 16:55 29.07280 48.25369 10581 ft 341 kts 122°
2026-05-04 16:55 29.04810 48.30343 11434 ft 373 kts 122°
2026-05-04 16:56 29.02224 48.35554 12870 ft 385 kts 122°
2026-05-04 16:56 28.98180 48.43686 14956 ft 400 kts 122°
2026-05-04 16:57 28.96796 48.46466 15611 ft 405 kts 122°
2026-05-04 16:57 28.93963 48.52146 16656 ft 423 kts 122°
2026-05-04 16:58 28.89415 48.61248 17562 ft 457 kts 122°
2026-05-04 16:58 28.87830 48.64417 18048 ft 462 kts 122°
2026-05-04 16:59 28.84623 48.70824 19002 ft 467 kts 122°
2026-05-04 17:00 28.78116 48.83847 21056 ft 478 kts 122°
2026-05-04 17:00 28.73239 48.93825 22642 ft 487 kts 122°
2026-05-04 17:01 28.69917 49.00604 23612 ft 493 kts 122°
2026-05-04 17:01 28.66538 49.07470 24406 ft 502 kts 123°
2026-05-04 17:02 28.63087 49.14465 25243 ft 511 kts 123°
2026-05-04 17:02 28.59392 49.21358 26140 ft 514 kts 132°
2026-05-04 17:03 28.56965 49.24314 26563 ft 511 kts 143°
2026-05-04 17:03 28.54117 49.26685 26763 ft 504 kts 154°
2026-05-04 17:03 28.48361 49.31346 26791 ft 512 kts 146°
2026-05-04 17:04 28.42862 49.36522 26787 ft 514 kts 144°
2026-05-04 17:04 28.37485 49.41814 26786 ft 515 kts 143°
2026-05-04 17:05 28.32093 49.47180 26793 ft 516 kts 143°
2026-05-04 17:05 28.26697 49.52540 26804 ft 515 kts 143°
2026-05-04 17:06 28.21276 49.57881 26787 ft 516 kts 143°
2026-05-04 17:06 28.18513 49.60460 26786 ft 513 kts 147°
2026-05-04 17:07 28.12849 49.65264 26790 ft 511 kts 149°
2026-05-04 17:07 28.10905 49.66876 26786 ft 511 kts 148°
2026-05-04 17:07 28.07114 49.70038 26788 ft 512 kts 148°
2026-05-04 17:07 28.04259 49.72447 26785 ft 512 kts 148°
2026-05-04 17:08 28.01369 49.74813 26809 ft 511 kts 149°
2026-05-04 17:08 27.95493 49.79331 26794 ft 511 kts 151°
2026-05-04 17:08 27.92580 49.81541 26797 ft 511 kts 151°
2026-05-04 17:09 27.89647 49.83777 26797 ft 511 kts 150°
2026-05-04 17:09 27.86691 49.86046 26798 ft 512 kts 150°
2026-05-04 17:09 27.83752 49.88313 26792 ft 512 kts 150°
2026-05-04 17:10 27.77911 49.92846 26435 ft 506 kts 150°
2026-05-04 17:10 27.69257 49.99540 25699 ft 500 kts 150°
2026-05-04 17:11 27.66428 50.01723 25467 ft 499 kts 150°
2026-05-04 17:11 27.63571 50.03927 25228 ft 497 kts 150°
2026-05-04 17:11 27.57888 50.08308 24771 ft 493 kts 150°
2026-05-04 17:12 27.55060 50.10485 24534 ft 491 kts 149°
2026-05-04 17:12 27.49442 50.14808 24086 ft 487 kts 149°
2026-05-04 17:13 27.41119 50.21267 23425 ft 482 kts 148°
2026-05-04 17:14 27.33044 50.27867 22649 ft 477 kts 147°
2026-05-04 17:14 27.30363 50.30059 22397 ft 476 kts 147°
2026-05-04 17:14 27.25021 50.34399 21874 ft 472 kts 147°
2026-05-04 17:15 27.22362 50.36550 21607 ft 470 kts 147°
2026-05-04 17:15 27.17232 50.40698 19515 ft 446 kts 146°
2026-05-04 17:16 27.12270 50.44691 16822 ft 436 kts 146°
2026-05-04 17:16 27.05009 50.50527 13626 ft 423 kts 144°
2026-05-04 17:17 27.02638 50.52436 12989 ft 416 kts 144°
2026-05-04 17:17 26.95316 50.56444 12050 ft 373 kts 175°
2026-05-04 17:18 26.92799 50.56624 12012 ft 353 kts 179°
2026-05-04 17:18 26.88194 50.57127 12012 ft 324 kts 170°
2026-05-04 17:19 26.83819 50.58220 11650 ft 318 kts 168°
2026-05-04 17:19 26.79559 50.59363 10214 ft 315 kts 168°
2026-05-04 17:20 26.75410 50.60859 9546 ft 308 kts 157°
2026-05-04 17:20 26.71657 50.62901 9004 ft 295 kts 155°
2026-05-04 17:20 26.69855 50.63917 8653 ft 293 kts 154°
2026-05-04 17:21 26.66253 50.65974 8043 ft 289 kts 153°
2026-05-04 17:21 26.62672 50.68028 8013 ft 290 kts 153°
2026-05-04 17:22 26.60876 50.69061 7843 ft 291 kts 153°
2026-05-04 17:22 26.59072 50.70098 7466 ft 291 kts 153°
2026-05-04 17:23 26.53775 50.73143 6474 ft 284 kts 153°
2026-05-04 17:23 26.52025 50.74147 6120 ft 283 kts 153°
2026-05-04 17:23 26.48547 50.76144 5415 ft 279 kts 153°
2026-05-04 17:24 26.46822 50.77133 5061 ft 278 kts 152°
2026-05-04 17:24 26.41752 50.80040 4180 ft 258 kts 152°
2026-05-04 17:25 26.40183 50.80939 3819 ft 250 kts 152°
2026-05-04 17:25 26.37236 50.82616 3229 ft 228 kts 152°
2026-05-04 17:26 26.34421 50.84171 3017 ft 226 kts 152°
2026-05-04 17:26 26.30200 50.86482 3021 ft 225 kts 152°
2026-05-04 17:27 26.27358 50.88043 2644 ft 236 kts 152°
2026-05-04 17:27 26.24303 50.89066 2034 ft 226 kts 186°
2026-05-04 17:28 26.21218 50.88506 2017 ft 224 kts 193°
2026-05-04 17:29 26.16784 50.87088 2013 ft 219 kts 226°
2026-05-04 17:29 26.16161 50.82600 2021 ft 197 kts 297°
2026-05-04 17:30 26.18283 50.78808 2024 ft 193 kts 307°
2026-05-04 17:31 26.19680 50.76306 2015 ft 179 kts 307°
2026-05-04 17:31 26.21600 50.72939 1653 ft 167 kts 308°
2026-05-04 17:32 26.22757 50.70913 1253 ft 141 kts 308°
2026-05-04 17:33 26.24293 50.68214 767 ft 138 kts 304°
2026-05-04 17:33 26.24795 50.67302 559 ft 137 kts 303°
2026-05-04 17:34 26.26341 50.64642 65 ft 134 kts 302°
2026-05-04 17:34 26.26826 50.63796 29 ft 122 kts 304°
2026-05-04 17:35 26.27255 50.62821 28 ft 1 kts 256°
2026-05-04 17:35 26.27255 50.62820 28 ft 0 kts 256°
2026-05-04 17:35 26.27252 50.62815 27 ft 0 kts 242°
2026-05-04 17:36 26.27242 50.62812 30 ft 1 kts 191°
2026-05-04 17:36 26.27223 50.62820 28 ft 0 kts 153°
2026-05-04 17:37 26.27196 50.62844 29 ft 14 kts 134°
2026-05-04 17:37 26.27154 50.62894 27 ft 8 kts 144°
2026-05-04 17:37 26.27097 50.62898 29 ft 9 kts 190°
2026-05-04 17:37 26.27055 50.62896 28 ft 0 kts 175°
2026-05-04 17:38 26.27049 50.62897 28 ft 4 kts 175°
2026-05-04 17:38 26.27027 50.62897 28 ft 2 kts 185°
2026-05-04 17:38 26.26998 50.62892 28 ft 6 kts 197°
2026-05-04 17:38 26.26961 50.62870 27 ft 3 kts 208°
2026-05-04 17:39 26.26940 50.62855 27 ft 0 kts 213°